CAPE
3915 3447 2942 2915 3140 3152 3197 3002 2528 2208 1764 1769 1840 1379 1197 1277 1053 1254 1274 860 1271 890 986 1139 1069 990 740 534 266 449 1084 1050 1044 1305 1798 1697 1504 1521 1860 2901 2697 2896 2939 2559 1992 1490 2023 2152 1804 1705 2028 1633 1210 883 696 554 472 457 829 1248 848 816 1137 3376 2939 2848 2741 2529 2562 2493 1540 2309 3872 3763 3482 3511 2592 2300 2220 2298 1836 1060 972 941 861
3728 3814 3371 3097 2997 3440 2904 2685 2480 2536 1686 1494 1700 1793 1309 1161 810 1721 1836 1968 1715 1184 1394 901 970 1031 836 949 907 409 622 1581 960 898 1239 1598 1702 798 729 2077 3024 2544 2168 2545 2673 2404 2055 2711 2647 1717 1711 1883 1735 1151 817 508 350 238 400 634 478 545 1431 2515 3284 2686 2434 2711 2792 2303 1364 2150 3504 3769 3696 3405 3230 2204 2050 1816 1754 1436 1246 1176 1136
3782 3041 2839 2980 2775 2650 2741 2586 2526 1935 1612 1493 1376 1710 1721 1517 1804 1524 1718 1497 1490 1431 1152 1190 1711 1581 1316 1004 1148 874 1031 734 670 716 1056 1606 1834 1335 1358 1580 2000 2002 1982 2340 2328 2544 2588 2565 2404 2314 1356 1335 1469 1196 1026 773 629 426 392 488 737 1072 2388 3965 3029 2814 2678 2544 2564 2291 2002 2252 2407 3648 3264 3036 2204 1986 1714 1424 1212 1378 1366 1322 1367
3092 2539 3050 2780 2503 2304 2327 2354 1984 1820 1550 1333 1927 2274 1957 1704 2107 3082 2772 2004 1673 1802 1250 1282 1288 1779 1687 1523 1352 1741 1752 1349 925 1046 1296 1207 1467 2307 2383 2557 2113 1630 1522 1417 1690 2168 2550 2746 2644 2420 2301 2124 2158 2072 1875 1438 1272 1248 1066 1124 3184 2209 2437 4066 3239 2158 2056 1806 2002 1975 1954 2080 1838 2226 3506 2810 2228 1741 1697 1647 1413 1146 1198 1264 1342
3036 2518 2650 2502 2117 1715 1135 1200 1589 1677 1620 1770 2478 2728 2449 2070 2223 2098 2306 2105 1871 1867 1810 1229 878 605 1321 1307 1554 1944 1729 1662 1822 1228 1076 1191 1796 1955 2237 2316 2100 2160 1865 1795 2276 2135 2480 2637 2524 2377 2396 2210 2272 2333 1960 1839 1822 1510 1296 1630 2027 2164 2819 3414 2365 2178 1862 1422 1480 1543 2634 3493 3729 2944 2123 1820 1312 1322 1522 1677 1490 1434 1088 1262 1238
3833 3214 2441 2709 2499 1508 1417 1697 1508 2072 2592 3148 2654 2875 3329 2672 2277 2123 2445 2668 2286 3244 2344 2200 1466 1436 1201 1197 1410 1572 1596 1709 1665 1820 1428 1121 2648 1853 1617 1339 1710 2116 1704 1071 802 1036 1363 1786 2162 2396 2422 2506 2744 3187 3030 2759 2307 1483 1908 2628 2901 3209 3321 3772 2847 2594 2056 1856 1850 1994 2042 2264 3164 2909 2058 1224 1092 1197 1431 1597 1492 1522 1534 1246 1334
2366 2482 2860 2190 1871 1792 2159 1634 846 1444 1586 2375 2922 2638 2225 1940 2097 2204 2546 2806 3283 3462 2714 2583 2629 2154 1862 1874 1407 1553 1620 1268 1737 2197 2412 2883 2806 2004 1337 1571 2118 1500 1328 1149 1020 832 682 570 816 1671 2688 3180 2967 2821 2602 2698 2674 3236 3422 2916 4033 3208 2885 3189 3868 3694 2664 1949 1835 1825 2036 2222 2578 2705 2381 1336 1572 1419 1706 1754 1634 1736 1659 1631 1537
2157 1627 1665 1032 1186 1166 1890 1538 1760 1710 1854 1756 2190 2151 1794 1994 2014 2460 3026 2994 2615 2536 2536 2624 2509 2260 2111 1910 1784 1761 2094 2248 2742 3246 3473 3428 3167 2278 2440 2188 1814 1594 1546 1222 1187 1007 789 808 686 590 934 2401 3352 2694 2725 3098 3453 3104 3030 3421 3426 3896 3849 3504 3501 3554 3633 2877 2218 1999 2224 2208 3242 2525 3034 1803 1772 1842 1556 2021 1936 1571 1675 1884 1764
1862 1862 1668 1490 1311 1860 1744 1895 1766 2027 2164 2226 2190 2172 2000 2069 2151 2662 2759 2486 2264 2336 2507 2338 2234 1949 1871 1886 2050 2038 1993 2219 2300 2438 2651 3307 2888 2695 2249 1987 1828 1797 1596 1274 1172 1137 1280 1404 1129 1342 1481 1110 2934 3012 2927 2704 3129 3328 3583 3558 3295 3126 3465 3445 3484 2983 2720 2789 2890 2996 2807 2599 2706 2936 2861 2091 1575 1448 2246 1458 1728 1858 1828 1886 1802
1782 1956 1856 1670 1319 1715 1526 1598 2344 2294 2743 2276 1886 1936 2156 2540 2751 2672 2782 2935 2942 2942 2892 2514 2478 2161 2073 2092 1852 2043 2411 2136 2138 2444 3091 2952 2659 2576 2382 2250 2166 2240 2098 1935 1761 1761 1537 1588 1361 1956 1897 1681 1730 1701 1944 2651 3205 3302 2811 2668 3232 3522 3409 3372 3396 3128 3030 2972 2716 2635 2682 2490 2472 2650 2727 2680 2480 2631 2415 1573 1554 1791 1773 1760 1678
1920 1558 1668 1424 1623 2077 1864 1539 1940 2519 2595 2005 1910 2266 2658 1924 2430 2761 2814 2796 3020 3213 2856 2644 2577 2573 2534 2248 2262 1927 1759 1807 2041 1910 1938 2175 2418 2460 2752 2845 2416 2255 2204 2026 1761 1481 1420 1636 1829 1938 1913 1671 1715 1476 1778 2656 3469 3416 3102 3110 3303 3194 2840 2456 2224 2349 2605 2635 2584 2404 2358 2228 2036 1974 2288 2804 2198 2153 2074 1679 1482 1599 1717 1733 1442
1668 1521 1404 1380 2222 2512 2096 2170 2550 2604 2622 2619 2672 2791 2885 2776 2789 2748 2950 2753 3190 2986 2890 2751 2827 2758 2357 2256 2167 2079 2083 2528 1552 1474 1618 1566 2091 2121 1877 1809 2384 3047 2479 1944 1388 1563 1690 1498 1560 1136 1059 1149 1506 1568 2009 2948 2927 2711 2531 2218 2018 1932 1919 2057 1975 1835 1946 2099 2273 2332 2070 1870 1732 2025 2077 1450 1373 1198 1961 2106 1680 1457 1385 1286 1411
1546 1852 2361 2480 2726 2641 2552 2624 2695 2792 2695 2704 2408 2786 2781 2833 2800 2830 2866 2760 2731 2850 2753 2538 2012 1953 1947 1868 1884 2110 2226 2149 1552 1629 1456 1446 1386 1531 1324 1956 2509 2639 2718 2485 1458 1041 1254 1310 1218 1163 934 1642 2110 2078 2132 2492 3002 2918 3045 2785 2494 2252 2105 2018 1928 1867 1716 1862 1989 1903 1789 1867 1951 2024 1302 1446 1379 1559 2132 1906 1683 1490 1010 1040 937
2183 2381 2712 2592 2495 2742 2752 2748 2678 2814 2886 2892 2852 2847 2710 2679 2789 3003 2889 2800 2787 2667 2449 2115 2428 2337 2004 2031 1802 1360 1475 1614 1593 1556 1584 1545 1454 1366 1467 1810 1936 2085 2317 2407 2019 1927 1230 1290 1403 1269 1141 1488 1798 1718 1857 1988 2022 1924 1917 2126 2248 2148 2013 1952 2273 2408 2285 1985 1679 1631 1784 1358 1057 1086 1065 1066 1176 1152 1099 1202 1088 1194 1070 1040 1030
2336 2183 2279 2322 2264 2681 2762 2702 2626 2528 2666 2762 2805 2792 2742 2520 2720 2829 2830 2623 2556 2609 2443 2622 2416 2300 2142 2051 2158 1674 1396 1534 1528 1518 1574 1564 1423 1365 1682 1724 1770 1986 2089 2132 2114 1628 1660 1268 1009 979 1238 1276 1782 1596 1638 1778 1763 1839 1690 1543 1639 1925 1830 2033 2413 2299 1602 1577 1635 1814 1796 1479 1264 1299 1199 1039 1412 1479 1279 1092 969 1015 1160 1088 975
2446 2170 2018 2023 1953 2348 2775 2694 2744 2753 2704 2704 2694 2696 2722 2844 2761 2782 2831 2682 2624 2746 2723 2550 2384 2290 2142 1850 1746 1604 2140 1832 1674 1556 1559 1638 1600 1582 1772 2001 1980 1991 1883 2364 2024 1765 1785 1571 1461 1554 1581 1856 1455 1520 1661 1734 1675 1516 1590 1361 1514 1656 1901 1915 1642 1334 1187 1163 1146 1606 1258 1209 1202 1158 1134 1164 1088 1059 928 1030 1094 1051 841 800 718
2240 2006 2024 2242 2349 2572 2542 2620 2678 2741 2690 2620 2684 2624 2769 2734 2658 2760 2480 2529 2494 2655 2587 2697 2378 2292 2306 1857 1552 1745 2069 1846 1472 1752 1803 1711 1606 1985 1954 1610 1698 1828 1586 1946 2058 2047 1812 1572 1645 1588 1487 1348 1318 1380 1436 1406 1387 1303 1297 1345 1322 1243 1102 1241 1092 944 971 1047 1054 1024 1065 1108 1108 1388 1012 1066 1140 787 851 934 822 774 835 841 804
2752 2500 2264 2322 2372 2286 2208 2515 2544 2513 2574 2596 2614 2684 2782 2835 2691 2588 2270 2306 2538 2510 3036 2484 2515 2088 2002 2126 1910 1844 1729 1882 1740 1851 1811 1572 1414 1458 1893 2204 1866 1971 1852 1483 1576 1498 1552 1920 1931 1518 1408 1148 1122 1118 1205 1204 1089 1016 1033 876 605 364 412 522 558 529 526 268 123 8 16 31 62 948 1116 1003 901 795 771 712 660 635 656 606 638
2542 2471 2314 2407 2418 2405 2703 2716 2705 2736 2582 2530 2518 2635 2753 2865 2872 2887 2796 2706 2782 2552 2428 2025 2156 2024 1988 1986 1930 1990 2042 2221 1711 1601 1589 1510 1380 1411 1850 1804 1527 1348 1554 1391 1368 1408 1406 1500 1313 1127 1161 1021 890 872 896 882 811 642 450 0 12 8 58 18 0 0 0 0 2 6 9 36 250 665 923 774 890 872 842 704 671 635 625 632 615
3131 2929 2819 2908 2818 2992 2926 2695 2706 2844 2777 2468 2610 2939 3131 2763 2861 2837 2928 2858 2507 2122 2174 2057 1852 1786 1576 1979 1865 1917 2150 1736 1665 1438 1393 1110 840 819 1323 1683 1913 1388 1055 1504 1435 1524 1571 1173 572 638 801 798 640 506 394 16 16 0 0 0 0 0 0 0 0 0 0 0 0 0 45 207 500 626 775 953 822 836 728 730 784 834 824 933 917
3126 3228 3182 3201 3276 3273 3200 3250 3049 2733 2685 2828 3000 2999 3085 3110 2854 2740 2587 3012 2774 2647 2577 2062 2104 1755 1656 2136 2572 2276 1724 1527 1153 967 741 592 460 458 994 1179 870 1076 1405 1442 1286 1256 1606 914 522 574 502 380 60 0 0 0 0 0 0 0 0 0 0 0 0 0 0 0 0 64 233 320 368 405 406 658 733 566 633 663 618 777 838 822 874
3053 3054 3058 3006 2838 2803 2812 2866 2610 2851 2801 2793 2834 2638 2894 2689 2220 2400 2854 2616 2148 2208 2118 2216 2568 2427 1810 1502 1436 1820 2368 1550 864 697 538 28 0 0 564 642 561 546 1236 1132 854 846 927 888 422 102 0 0 0 0 0 0 0 0 0 0 0 0 0 0 0 0 2 15 104 153 199 281 338 434 459 231 215 149 151 229 360 676 818 851 718
2881 3144 3184 3010 2976 2781 2752 2576 2594 2519 2590 2499 2280 2359 2620 2595 2348 2538 2042 1901 1982 1908 1830 2118 1957 2117 2327 2285 2571 2478 1937 1275 702 576 457 41 396 434 136 276 74 708 649 666 622 686 592 528 210 0 0 0 0 0 0 0 0 0 0 0 0 0 0 0 0 9 87 164 274 316 379 201 36 32 34 6 2 3 5 21 146 238 335 536 787
3120 2923 2982 2905 2755 2734 2698 2462 2286 2001 2102 2289 2296 2363 2070 2110 2232 2272 2042 2157 2242 2318 2421 2027 2170 1844 1682 2833 2048 2220 1802 1072 767 262 0 0 0 0 0 0 15 90 202 174 366 452 569 309 35 0 0 0 0 0 0 0 0 0 0 0 0 0 0 0 26 60 44 68 34 10 2 3 2 2 2 2 6 7 14 74 22 5 2 1 1
2976 2838 2645 2452 2314 2182 2245 1598 1334 1395 1413 1607 1817 1678 1710 1687 2183 2533 2436 2337 2419 1953 2126 1931 2098 1811 2679 2327 2126 2340 2140 1682 1044 757 548 282 0 0 0 0 0 0 58 194 192 379 225 0 0 0 0 0 0 0 0 0 0 0 0 0 0 0 0 32 0 0 4 4 8 9 10 15 20 20 20 22 26 33 39 32 18 10 7 5 6
3012 2758 2237 2012 1511 1568 1442 1096 1098 1208 1184 1061 1269 1384 1516 1488 1620 2120 1875 1596 1951 2216 1969 1780 1652 2080 2536 2100 2399 2264 2196 1960 1868 972 748 508 183 0 0 0 0 49 58 370 88 4 0 0 0 0 0 0 0 0 0 0 0 0 0 0 0 0 16 8 1 0 0 0 0 0 3 9 12 11 19 42 51 33 42 28 18 10 10 12 7
3052 2618 2320 1284 1309 1513 1160 1070 975 1107 1174 1130 1028 1037 1374 1155 992 1669 1693 1274 1329 1397 1560 1570 1586 1546 1952 1934 2502 2993 2000 2120 2041 1810 1687 1633 1305 992 758 161 0 10 30 210 203 312 380 31 0 0 0 0 0 0 0 0 0 0 0 0 0 10 51 5 0 0 0 0 0 0 0 3 7 19 34 23 28 39 28 22 17 12 14 20 18
2173 1951 1426 996 1379 1036 858 1024 1174 876 591 716 882 711 842 909 1035 1534 2028 1450 1220 1322 873 1296 1214 777 1096 1743 1899 1964 2002 826 854 776 662 546 432 398 312 354 77 45 0 0 0 0 0 0 1 5 2 0 0 0 0 0 0 0 4 34 17 58 34 16 3 10 0 0 0 0 0 14 19 16 13 14 12 16 26 24 18 25 18 19 24
1716 1520 1042 902 1259 1490 618 838 1055 1007 1120 1958 1715 1342 1575 1576 2336 1910 1352 1188 1012 777 497 542 575 381 464 1068 990 1311 1641 947 684 511 374 0 0 1 0 0 0 0 0 0 0 0 0 0 29 168 266 288 435 518 427 352 118 143 336 614 440 353 46 18 2 19 66 4 0 0 0 12 56 26 24 20 32 31 32 19 17 10 18 17 9
2152 1140 1195 750 1280 990 582 576 994 1724 758 860 1547 1080 831 669 786 1984 1028 108 0 0 0 74 0 154 663 140 144 472 354 0 0 0 0 0 0 0 0 0 0 0 0 0 0 0 0 0 66 404 596 716 578 496 459 415 457 253 134 457 279 531 149 65 30 42 5 10 0 0 45 96 23 28 26 22 33 30 23 8 14 9 8 2 0
1364 2370 2486 1932 1785 2186 1517 1322 2346 2304 2198 1908 2038 1921 1385 1076 961 842 745 771 302 0 0 0 0 0 0 196 0 0 0 0 0 0 0 0 0 0 0 0 0 0 0 0 0 0 0 0 91 416 810 208 28 5 32 13 12 14 6 4 1 2 38 19 4 4 0 0 0 0 2 15 24 30 30 23 19 16 15 4 7 24 6 0 0
2995 2282 1931 2002 2613 2646 1991 2387 1776 2400 3195 2658 2870 2243 2193 2136 1476 1314 1080 962 636 198 0 0 0 0 0 0 0 0 0 0 0 0 0 0 0 0 0 0 0 0 0 0 0 0 0 88 344 425 112 7 3 15 4 0 0 0 1 0 0 0 183 1 6 0 0 0 0 0 1 8 13 26 20 19 22 21 4 1 0 2 7 1 0
2744 2693 2992 2950 2891 2920 2113 2667 2770 2432 1884 2440 2658 2308 1948 1407 2124 1604 1156 1034 928 742 695 702 709 116 0 0 0 0 0 0 0 0 0 0 0 0 0 0 0 0 0 0 0 0 4 44 11 4 0 1 1 2 1 0 1 0 4 11 6 7 313 187 56 30 2 0 0 0 4 9 16 12 8 10 26 27 16 1 0 2 8 2 2
2515 2928 2980 3073 2917 2986 2748 3039 2519 2611 2880 2779 2132 2068 1843 2031 1887 1920 1978 1336 1052 908 952 992 886 746 183 0 0 0 0 0 0 0 0 0 0 0 0 0 0 0 0 0 0 0 1 12 5 8 22 58 18 4 28 54 74 109 60 45 28 51 661 232 424 271 33 26 9 4 6 11 11 13 6 9 13 55 14 1 0 0 2 2 0
2510 2236 2356 2682 2958 2672 2263 2213 2132 2568 2205 2292 2052 1807 1870 1984 1788 1341 1649 1620 1779 1657 1851 1300 873 735 10 0 0 0 0 0 0 0 0 0 0 0 0 0 14 12 0 0 0 0 1 94 56 88 74 76 145 152 146 145 149 77 50 40 32 64 126 27 10 78 92 51 30 16 8 12 10 8 5 6 14 112 22 8 0 0 0 0 0
2234 2370 2079 1856 2112 2288 2166 2631 2446 2118 1986 1719 1566 1370 1336 1514 846 1242 1481 1652 1452 1299 1639 1699 852 91 0 0 0 0 0 0 0 0 0 0 0 0 0 15 80 290 140 39 0 1 128 322 159 266 240 228 168 184 226 138 142 86 76 32 15 15 12 16 31 96 130 56 27 22 7 6 12 11 8 7 14 24 50 37 9 0 0 0 0
2306 2066 2010 2096 2065 1724 1606 1802 1744 1369 826 1112 1437 1662 1352 1214 1204 1360 1569 2163 1370 1295 1543 1297 826 628 746 588 43 0 0 0 0 0 0 0 0 0 0 0 37 244 266 290 234 192 230 236 108 142 202 217 183 142 84 42 66 96 85 374 204 125 11 17 47 88 164 20 23 100 81 52 60 45 32 29 32 17 10 10 30 34 0 0 0
1148 1068 1077 1266 1558 1663 1867 1776 1175 972 1795 1207 1517 1554 1573 1334 1364 1500 1148 1231 1016 959 1145 943 704 548 410 606 369 328 0 0 131 280 0 88 4 96 0 90 233 226 241 294 242 203 142 182 127 305 340 290 266 274 220 182 126 103 260 412 279 100 96 72 100 76 80 82 40 120 188 126 121 104 57 20 22 1 12 8 13 68 0 0 0
983 406 289 718 1178 1532 1183 1098 1145 934 1139 892 736 876 878 823 945 889 899 816 872 834 636 542 375 0 0 0 0 17 117 174 238 598 442 344 264 274 243 196 200 390 284 200 164 140 72 34 77 157 202 113 68 61 125 112 235 196 239 269 171 146 184 139 108 88 20 21 40 126 181 182 152 170 136 20 19 14 10 14 9 7 14 14 18
672 588 664 333 752 839 812 897 868 842 761 598 429 656 686 718 726 710 619 600 551 535 378 124 4 0 0 0 0 0 4 468 527 161 177 290 252 174 124 64 104 22 9 8 4 14 15 19 59 28 10 5 4 5 6 2 1 68 90 109 64 29 76 46 13 0 0 4 2 2 6 9 29 44 75 136 86 16 24 11 0 0 0 0 0
923 962 932 735 484 736 714 442 520 580 530 590 552 501 417 494 466 414 342 250 259 314 204 61 0 0 0 0 0 0 192 18 4 5 2 0 0 0 2 4 5 2 2 2 0 0 4 12 12 12 5 2 1 1 1 0 0 0 0 0 0 0 1 0 0 0 0 0 0 4 10 9 4 13 5 17 0 0 0 0 0 0 1 2 9
584 554 608 464 702 550 352 318 281 592 461 421 258 214 261 192 175 166 116 92 46 15 2 6 6 1 0 0 0 0 90 2 0 0 2 2 2 3 0 1 0 2 0 2 0 0 0 0 0 0 0 0 0 0 0 0 0 0 0 0 0 0 0 0 0 0 0 0 0 16 6 5 4 0 10 2 19 27 11 4 1 3 4 2 0
463 476 522 456 390 217 292 362 332 164 180 107 31 8 46 18 10 18 3 0 0 1 2 3 3 14 13 0 0 0 8 8 9 10 6 6 1 1 0 2 2 3 3 1 0 0 0 1 0 1 0 0 0 0 0 0 0 0 0 0 0 0 0 0 0 0 0 0 0 0 6 20 0 0 2 5 13 3 6 6 6 4 8 17 8
384 284 280 243 260 248 118 60 32 50 71 43 4 0 0 0 0 0 2 2 1 2 1 4 1 9 11 13 13 14 16 14 14 11 15 14 11 4 3 4 3 2 1 1 2 2 0 0 1 1 0 0 0 0 0 0 0 0 0 0 0 0 0 0 0 0 0 0 0 0 0 0 0 0 4 0 2 5 4 2 2 1 5 2 1
35 26 25 24 28 63 62 108 8 19 60 21 9 3 2 1 0 0 1 2 3 4 5 4 3 3 9 12 12 12 5 8 12 14 21 15 12 11 2 3 3 3 3 4 2 2 2 1 1 1 0 0 0 0 0 0 1 0 0 0 0 0 0 0 0 0 0 0 0 0 0 0 0 2 4 0 0 3 1 1 0 2 4 6 6
2 3 4 4 4 4 7 4 6 2 1 2 3 7 6 4 2 0 0 0 0 0 3 4 6 5 4 4 4 2 1 2 2 2 5 4 2 1 6 7 12 6 3 0 1 2 0 2 0 1 0 2 0 0 0 0 0 0 0 0 0 0 0 1 4 0 0 0 0 0 0 0 2 4 8 13 16 9 5 16 30 31 36 16 2
0 0 0 1 6 6 6 2 0 3 3 0 3 4 2 0 3 4 1 0 0 0 0 1 4 6 6 11 3 4 0 1 1 9 16 11 9 8 10 15 7 7 14 15 12 2 0 2 0 6 2 0 0 15 0 0 0 0 0 0 0 0 0 0 0 0 0 0 0 0 0 0 4 4 8 14 19 31 41 39 82 154 174 91 66
0 0 0 0 3 1 1 4 4 6 2 5 5 0 0 0 0 0 0 0 0 0 0 0 0 0 0 1 0 0 0 0 0 0 4 2 4 9 18 22 15 10 16 14 16 12 4 3 2 9 1 1 0 0 0 0 0 0 0 0 0 0 0 0 0 0 0 0 0 0 0 0 0 2 3 7 10 11 10 17 39 70 120 117 109
0 0 0 0 1 2 1 0 0 0 0 0 0 0 0 0 0 0 0 0 0 0 0 0 0 0 0 0 0 0 0 0 0 4 4 5 4 6 11 17 14 12 9 6 10 12 17 10 13 9 0 0 0 0 0 0 0 0 0 0 0 0 0 0 0 0 0 0 0 0 0 0 0 2 6 5 2 0 0 0 2 3 10 62 20
0 0 0 0 0 3 6 3 0 0 0 0 0 0 0 0 0 0 0 0 0 0 0 0 0 0 0 0 0 0 0 0 0 0 0 4 0 3 2 4 10 1 2 8 10 11 10 10 21 0 0 0 0 0 0 0 0 0 0 0 0 0 0 0 0 0 0 0 0 0 0 0 0 1 1 4 1 0 0 0 1 2 12 25 41
0 0 0 0 0 0 0 0 0 0 0 0 0 0 0 0 0 0 0 0 0 0 0 0 0 0 0 0 0 0 0 0 0 0 0 0 0 0 0 0 2 2 3 12 6 4 4 6 6 0 0 0 0 0 0 0 0 0 0 0 0 0 0 0 0 0 0 0 0 0 0 0 0 3 2 3 3 0 0 0 2 3 4 8 15
Wind_Speed
16 14 14 12 16 18 17 16 17 16 16 16 14 13 13 12 12 13 13 11 13 13 12 13 15 13 10 12 11 14 17 16 16 16 17 17 16 15 15 17 16 16 18 17 19 19 20 20 19 19 21 21 21 21 21 21 23 24 25 27 27 29 30 30 27 26 27 28 26 27 26 26 27 30 30 27 29 29 29 28 30 31 31 30 32
15 15 14 13 16 18 17 16 16 17 16 17 16 14 13 13 13 16 14 15 14 14 17 14 14 13 13 15 15 13 16 17 15 15 16 17 16 15 14 16 17 17 18 18 19 19 20 21 20 19 21 20 20 19 20 20 21 23 26 27 28 28 32 33 31 28 26 29 28 28 26 30 30 32 31 31 30 29 27 26 30 32 30 29 30
18 16 16 15 16 16 16 15 16 17 16 17 16 17 16 15 17 17 17 15 16 16 16 15 17 15 15 15 16 16 17 17 16 16 16 17 18 17 16 15 16 16 16 18 18 19 17 18 17 19 19 20 20 19 18 19 21 22 23 27 27 31 35 34 32 29 28 29 30 30 31 32 31 33 30 34 40 32 28 27 28 23 24 26 29
19 17 16 16 16 15 16 15 16 17 17 17 17 19 22 18 20 22 16 17 17 17 16 14 13 17 16 15 14 16 17 17 17 17 18 17 19 19 19 19 17 17 16 16 17 18 17 17 17 18 21 21 21 23 24 24 25 26 26 27 33 33 33 34 33 32 30 27 30 29 32 32 33 36 36 38 39 36 33 31 32 28 21 22 28
22 20 20 17 17 14 15 15 17 19 18 15 17 20 20 21 21 22 18 17 19 23 24 23 16 10 12 14 14 14 15 16 17 16 16 18 18 21 22 20 17 17 17 19 19 19 17 16 16 18 20 19 21 22 24 24 25 25 25 28 31 31 34 35 32 31 31 27 26 29 31 32 35 38 39 35 33 34 34 31 32 32 28 26 28
21 21 22 18 19 16 16 20 22 28 24 19 19 20 20 22 23 24 17 20 21 21 23 21 19 16 13 13 14 14 15 15 15 17 18 19 27 25 24 21 20 27 24 24 24 25 23 20 18 19 19 19 21 24 26 24 25 24 25 29 30 31 32 32 31 28 27 25 26 28 32 32 33 35 41 41 38 34 33 30 29 33 33 30 31
26 22 20 24 21 15 22 24 26 25 16 15 18 23 24 22 22 22 17 21 21 21 21 20 20 19 17 16 14 15 16 15 17 19 22 22 25 25 23 21 25 25 24 21 23 23 24 24 24 22 20 21 21 23 24 25 26 26 28 27 31 31 29 28 28 29 29 28 27 27 29 32 34 32 39 42 41 39 38 35 28 29 32 33 34
32 27 20 26 24 21 22 29 29 28 25 22 19 23 24 25 21 14 18 21 20 18 16 16 18 18 19 19 20 20 19 19 20 22 22 22 23 25 26 25 26 24 23 22 24 26 22 25 26 22 17 19 26 29 28 27 27 26 27 29 30 29 28 28 29 28 28 29 27 26 29 30 32 33 39 43 41 40 38 36 33 33 34 35 35
23 21 20 24 23 22 25 26 28 25 25 27 25 23 22 21 18 18 21 20 19 18 16 15 16 17 19 20 19 19 21 23 22 22 22 23 24 24 26 26 26 25 23 23 24 25 25 23 24 23 23 12 13 25 27 26 27 26 27 29 29 28 27 27 28 28 28 27 25 27 27 28 29 32 36 38 39 39 41 40 36 36 38 36 33
24 21 19 21 21 21 23 24 24 24 24 23 21 19 18 17 19 20 21 20 19 19 18 17 18 19 20 20 19 20 22 22 21 18 22 23 23 25 28 28 26 24 25 25 24 25 26 26 24 20 25 26 25 26 22 17 19 22 26 28 29 29 28 27 27 28 27 26 25 26 26 26 29 32 33 34 37 43 45 43 38 39 42 34 30
20 19 18 20 19 19 21 22 22 22 21 20 18 16 15 16 16 18 19 19 19 20 20 19 20 20 21 22 24 23 22 21 21 19 21 23 24 26 28 28 26 23 23 25 25 25 25 26 28 29 28 26 24 18 13 11 18 21 21 23 25 26 26 25 25 27 26 25 25 26 27 25 27 32 34 36 40 36 40 42 42 46 46 40 30
21 21 19 19 18 19 20 21 21 20 20 18 17 14 13 14 14 15 15 15 19 22 19 18 19 18 20 22 23 22 21 21 24 22 24 26 25 25 25 25 25 25 24 25 28 27 27 32 35 31 24 20 21 22 18 19 20 21 22 23 23 22 25 26 25 25 25 25 25 26 27 27 28 33 37 43 39 32 31 40 44 46 46 41 37
22 21 23 22 21 19 20 20 19 19 19 19 16 14 12 10 9 9 10 12 15 15 15 15 14 15 16 16 19 20 17 20 21 25 26 25 24 23 23 24 25 24 25 30 30 26 27 27 24 25 26 20 24 26 27 28 27 25 24 25 24 23 22 22 25 25 25 25 24 23 27 29 29 33 42 43 37 30 33 40 42 42 40 40 37
21 22 21 21 20 19 18 18 17 18 18 17 16 13 11 8 7 7 8 9 9 10 10 12 13 15 14 16 14 12 12 24 17 15 16 17 18 19 18 18 20 20 22 25 26 27 25 20 21 23 26 28 28 24 26 27 29 29 30 27 26 24 20 21 22 22 25 27 24 22 26 31 28 35 39 40 34 30 32 35 41 36 34 33 32
20 20 19 19 18 18 17 16 16 16 15 13 12 12 11 8 7 7 9 9 8 9 9 11 11 11 12 12 12 9 8 12 13 14 9 10 14 14 14 15 15 17 19 20 21 23 23 21 18 17 19 22 23 26 26 25 24 25 24 22 22 23 24 25 27 29 28 27 26 23 24 28 29 33 38 34 32 30 30 23 25 31 31 28 28
20 19 19 18 17 16 17 16 15 14 13 11 10 11 11 10 9 11 11 10 10 10 11 10 10 10 10 10 11 9 8 12 11 12 15 15 16 14 14 16 17 19 19 19 16 18 21 23 21 18 18 18 23 25 23 22 21 20 21 20 17 18 20 20 19 23 18 18 21 22 23 23 24 27 35 32 26 33 29 24 22 25 28 29 29
19 18 18 17 16 14 14 14 13 12 12 11 10 9 10 9 10 13 10 10 11 11 12 14 13 11 11 12 10 9 8 12 13 12 14 17 15 13 14 16 18 18 17 16 15 13 16 18 20 22 18 20 24 23 20 20 20 20 20 19 17 16 16 18 15 18 26 22 21 20 17 17 18 18 38 36 32 38 33 29 29 29 27 26 26
17 18 17 16 16 15 14 12 11 12 10 10 9 9 11 11 10 11 10 10 9 11 15 14 13 12 10 10 11 10 8 10 13 15 15 13 11 13 13 15 17 18 17 16 15 12 10 9 12 14 16 22 23 23 19 18 18 18 17 16 15 14 15 16 17 20 21 19 18 nan nan nan nan 19 31 36 34 41 38 36 33 32 27 25 23
16 16 17 17 16 15 14 12 12 11 11 11 11 11 11 11 10 11 11 11 11 12 14 13 13 11 10 9 6 9 10 13 18 18 16 15 14 14 15 17 18 17 19 18 16 14 14 13 18 23 25 25 25 24 22 19 18 17 16 nan nan nan nan nan nan nan nan nan nan nan nan nan 22 24 24 32 34 37 35 33 35 34 29 26 25
15 15 15 15 15 15 13 13 12 13 13 13 14 13 13 11 8 9 10 11 12 15 15 17 15 10 9 8 10 12 14 18 19 23 19 20 21 19 18 19 21 21 21 22 21 18 18 22 27 28 28 27 24 23 22 nan nan nan nan nan nan nan nan nan nan nan nan nan nan nan nan 22 24 26 26 30 34 31 32 31 32 34 32 28 26
13 13 13 13 14 15 14 14 14 14 15 16 15 15 13 13 12 12 12 12 14 16 17 21 23 19 14 13 13 15 21 25 22 22 24 25 25 22 20 24 25 23 23 22 22 21 23 27 28 28 27 24 nan nan nan nan nan nan nan nan nan nan nan nan nan nan nan nan nan nan 23 25 26 27 29 30 35 34 31 30 28 27 27 25 24
14 13 13 13 14 14 14 14 15 16 15 15 15 15 14 14 14 15 15 14 14 15 17 18 20 23 23 21 20 21 28 31 26 26 28 nan nan nan 24 27 26 23 23 23 23 25 25 28 29 28 nan nan nan nan nan nan nan nan nan nan nan nan nan nan nan nan nan nan 24 25 26 27 28 31 34 34 33 32 32 31 30 29 30 29 28
14 13 12 13 13 14 13 14 14 14 14 14 14 14 14 14 13 13 13 14 13 15 17 17 20 19 22 23 21 26 29 29 30 28 29 nan 31 31 30 28 nan 24 25 23 24 24 24 30 29 nan nan nan nan nan nan nan nan nan nan nan nan nan nan nan nan nan nan 25 25 27 28 31 nan nan nan nan nan nan nan nan 31 31 30 30 29
13 14 14 14 14 15 15 16 16 15 17 15 15 14 14 13 14 13 13 13 14 15 16 16 16 17 17 20 21 23 28 27 27 29 nan nan nan nan nan nan nan nan 25 24 24 24 25 27 nan nan nan nan nan nan nan nan nan nan nan nan nan nan nan nan nan nan nan nan nan nan nan nan nan nan nan nan nan nan nan nan nan nan nan nan nan
16 16 16 16 17 18 16 16 16 16 17 17 15 14 16 13 14 13 14 15 16 16 16 17 18 17 19 20 21 19 24 25 25 25 27 25 nan nan nan nan nan nan nan 26 25 26 26 nan nan nan nan nan nan nan nan nan nan nan nan nan nan nan nan nan nan nan nan nan nan nan nan nan nan nan nan nan nan nan nan nan nan nan nan nan nan
16 17 18 19 20 20 20 20 18 17 16 14 17 15 17 15 15 15 14 14 16 17 18 18 18 19 19 21 21 21 22 21 26 25 25 24 22 nan nan nan nan nan nan 23 nan nan nan nan nan nan nan nan nan nan nan nan nan nan nan nan nan nan nan nan nan nan nan nan nan nan nan nan nan nan nan nan nan nan nan nan nan nan nan nan nan
18 18 18 19 19 19 18 20 21 19 17 16 17 18 15 16 15 14 13 14 16 15 17 17 19 18 17 20 20 22 21 22 24 25 24 24 24 27 27 24 nan nan nan 24 23 23 23 nan nan nan nan nan nan nan nan nan nan nan nan nan nan nan nan nan nan nan nan nan nan nan nan nan nan nan nan nan nan nan nan nan nan nan nan nan nan
22 22 24 22 21 21 19 19 18 15 17 18 12 17 17 19 19 18 18 18 17 17 17 19 19 18 22 22 21 22 24 26 24 24 23 23 23 23 25 26 nan nan nan nan nan nan nan nan nan nan nan nan nan nan nan nan nan nan nan nan nan nan nan nan nan nan nan nan nan nan nan nan nan nan nan nan nan nan nan nan nan nan nan nan nan
21 25 25 24 24 21 25 23 22 18 16 19 22 19 18 19 22 25 23 21 22 20 18 20 21 19 18 24 23 21 25 27 27 26 27 nan nan nan nan nan nan nan nan nan nan nan nan nan nan 26 27 26 27 29 31 32 31 28 27 34 34 36 nan nan nan nan nan nan nan nan nan nan nan nan nan nan nan nan nan nan nan nan nan nan nan
22 21 23 25 27 25 24 27 25 20 20 23 26 25 24 27 23 23 25 26 nan nan nan nan nan 22 24 28 25 25 24 nan nan nan nan nan nan nan nan nan nan nan nan nan nan nan nan nan nan 27 26 28 30 31 33 35 35 33 32 37 35 38 40 nan nan nan nan nan nan nan nan nan nan nan nan nan nan nan nan nan nan nan nan nan nan
21 21 23 25 25 26 24 25 30 28 24 24 26 28 26 25 28 30 31 31 32 nan nan nan nan nan nan 29 nan nan nan nan nan nan nan nan nan nan nan nan nan nan nan nan nan nan nan nan nan 26 27 28 nan nan nan nan nan nan nan nan nan nan nan nan nan nan nan nan nan nan nan nan nan nan nan nan nan nan nan nan nan nan nan nan nan
26 25 27 28 28 29 31 29 30 28 26 25 24 26 26 27 24 27 30 33 34 35 nan nan nan nan nan nan nan nan nan nan nan nan nan nan nan nan nan nan nan nan nan nan nan nan nan nan 27 27 29 nan nan nan nan nan nan nan nan nan nan nan 41 nan nan nan nan nan nan nan nan nan nan nan nan nan nan nan nan nan nan nan nan nan nan
27 28 29 28 29 31 33 34 35 32 30 26 28 27 25 23 23 24 26 30 31 32 34 36 35 34 nan nan nan nan nan nan nan nan nan nan nan nan nan nan nan nan nan nan nan nan nan nan nan nan nan nan nan nan nan nan nan nan nan nan nan nan 40 40 nan nan nan nan nan nan nan nan nan nan nan nan nan nan nan nan nan nan nan nan nan
29 28 29 30 31 31 32 34 35 34 32 28 28 26 25 24 23 23 28 28 26 28 33 36 36 35 38 nan nan nan nan nan nan nan nan nan nan nan nan nan nan nan nan nan nan nan nan nan nan nan nan nan nan nan nan nan nan 33 nan nan nan nan 37 38 36 35 nan nan nan nan nan nan nan nan nan nan nan nan nan nan nan nan nan nan nan
31 30 32 32 31 33 33 33 34 33 32 28 30 27 26 24 24 26 27 31 30 29 29 32 31 31 nan nan nan nan nan nan nan nan nan nan nan nan nan nan nan nan nan nan nan nan nan nan nan nan nan nan 29 29 30 30 31 nan nan nan nan nan 34 nan nan nan nan nan nan nan nan nan nan nan nan nan nan 39 nan nan nan nan nan nan nan
32 31 31 31 32 31 28 28 29 28 28 28 28 28 27 28 28 31 33 36 35 35 33 32 33 nan nan nan nan nan nan nan nan nan nan nan nan nan nan nan nan 27 30 nan nan nan 29 28 29 30 30 29 29 29 29 28 29 nan nan nan nan nan nan nan nan nan 33 nan nan nan nan nan nan nan nan nan nan nan nan nan nan nan nan nan nan
30 30 30 28 26 28 27 23 25 23 24 25 27 28 28 29 31 34 34 35 36 35 34 34 34 33 32 32 nan nan nan nan nan nan nan nan nan nan nan nan nan 27 27 28 29 30 30 32 33 32 32 32 32 31 nan nan nan nan nan 32 32 31 nan nan nan nan 30 nan nan nan nan nan nan nan nan nan nan nan nan nan nan nan nan nan nan
32 31 30 27 24 22 25 26 24 23 25 25 27 28 29 31 32 32 33 34 32 34 33 32 34 34 33 33 36 35 nan nan 32 31 nan nan nan nan nan nan 29 28 26 29 30 31 31 31 31 30 31 32 33 32 33 34 33 33 32 31 31 30 nan nan 28 nan nan nan nan 30 29 29 28 27 nan nan nan nan nan nan nan nan nan nan nan
35 34 31 25 23 25 26 27 27 25 27 28 29 30 31 31 33 35 36 36 37 37 37 36 36 nan nan nan nan nan 34 33 31 32 34 33 32 32 31 31 31 29 30 31 31 31 nan nan nan 32 34 34 nan nan 33 33 32 31 32 31 31 31 31 32 33 nan nan nan nan 30 29 30 29 28 32 nan nan nan nan nan nan nan nan nan nan
31 31 29 26 27 28 27 28 30 29 29 31 32 32 32 32 33 35 37 37 37 38 38 37 nan nan nan nan nan nan nan 32 33 34 34 33 33 33 33 nan 32 nan nan nan nan nan nan nan nan nan nan nan nan nan nan nan nan nan nan 37 nan nan nan nan nan nan nan nan nan nan nan nan nan nan nan 35 nan nan nan nan nan nan nan nan nan
33 31 29 30 26 27 29 29 31 31 31 33 32 33 34 34 35 36 36 36 37 38 38 nan nan nan nan nan nan nan 29 nan nan nan nan nan nan nan nan nan nan nan nan nan nan nan nan nan nan nan nan nan nan nan nan nan nan nan nan nan nan nan nan nan nan nan nan nan nan nan nan nan nan nan nan nan nan nan nan nan nan nan nan nan nan
34 32 30 30 30 31 31 32 34 35 34 35 34 34 34 36 36 36 36 nan nan nan nan nan nan nan nan nan nan nan nan nan nan nan nan nan nan nan nan nan nan nan nan nan nan nan nan nan nan nan nan nan nan nan nan nan nan nan nan nan nan nan nan nan nan nan nan nan nan nan nan nan nan nan nan nan nan nan nan nan nan nan nan nan nan
36 33 32 32 32 34 33 34 35 36 36 36 nan nan nan nan nan nan nan nan nan nan nan nan nan nan nan nan nan nan nan nan nan nan nan nan nan nan nan nan nan nan nan nan nan nan nan nan nan nan nan nan nan nan nan nan nan nan nan nan nan nan nan nan nan nan nan nan nan nan nan nan nan nan nan nan nan nan nan nan nan nan nan nan nan
36 35 35 35 35 35 35 nan nan nan nan nan nan nan nan nan nan nan nan nan nan nan nan nan nan nan nan nan nan nan nan nan nan nan nan nan nan nan nan nan nan nan nan nan nan nan nan nan nan nan nan nan nan nan nan nan nan nan nan nan nan nan nan nan nan nan nan nan nan nan nan nan nan nan nan nan nan nan nan nan nan nan nan nan nan
nan nan nan nan nan nan nan 34 nan nan nan nan nan nan nan nan nan nan nan nan nan nan nan nan nan nan nan nan nan nan nan nan nan nan nan nan nan nan nan nan nan nan nan nan nan nan nan nan nan nan nan nan nan nan nan nan nan nan nan nan nan nan nan nan nan nan nan nan nan nan nan nan nan nan nan nan nan nan nan nan nan nan nan nan nan
nan nan nan nan nan nan nan nan nan nan nan nan nan nan nan nan nan nan nan nan nan nan nan nan nan nan nan nan nan nan nan nan nan nan nan nan nan nan nan nan nan nan nan nan nan nan nan nan nan nan nan nan nan nan nan nan nan nan nan nan nan nan nan nan nan nan nan nan nan nan nan nan nan nan nan nan nan nan nan nan nan nan nan nan nan
nan nan nan nan nan nan nan nan nan nan nan nan nan nan nan nan nan nan nan nan nan nan nan nan nan nan nan nan nan nan nan nan nan nan nan nan nan nan nan nan nan nan nan nan nan nan nan nan nan nan nan nan nan nan nan nan nan nan nan nan nan nan nan nan nan nan nan nan nan nan nan nan nan nan nan nan nan nan nan nan nan 41 42 nan nan
nan nan nan nan nan nan nan nan nan nan nan nan nan nan nan nan nan nan nan nan nan nan nan nan nan nan nan nan nan nan nan nan nan nan nan nan nan nan nan nan nan nan nan nan nan nan nan nan nan nan nan nan nan nan nan nan nan nan nan nan nan nan nan nan nan nan nan nan nan nan nan nan nan nan nan nan nan nan nan nan nan nan 42 42 42
nan nan nan nan nan nan nan nan nan nan nan nan nan nan nan nan nan nan nan nan nan nan nan nan nan nan nan nan nan nan nan nan nan nan nan nan nan nan nan nan nan nan nan nan nan nan nan nan nan nan nan nan nan nan nan nan nan nan nan nan nan nan nan nan nan nan nan nan nan nan nan nan nan nan nan nan nan nan nan nan nan nan nan nan nan
nan nan nan nan nan nan nan nan nan nan nan nan nan nan nan nan nan nan nan nan nan nan nan nan nan nan nan nan nan nan nan nan nan nan nan nan nan nan nan nan nan nan nan nan nan nan nan nan nan nan nan nan nan nan nan nan nan nan nan nan nan nan nan nan nan nan nan nan nan nan nan nan nan nan nan nan nan nan nan nan nan nan nan nan nan
nan nan nan nan nan nan nan nan nan nan nan nan nan nan nan nan nan nan nan nan nan nan nan nan nan nan nan nan nan nan nan nan nan nan nan nan nan nan nan nan nan nan nan nan nan nan nan nan nan nan nan nan nan nan nan nan nan nan nan nan nan nan nan nan nan nan nan nan nan nan nan nan nan nan nan nan nan nan nan nan nan nan nan nan nan
Wind_Direction
296 293 296 297 299 301 306 305 311 308 309 307 311 310 299 300 297 284 268 279 278 282 282 266 266 274 281 266 268 258 263 268 273 269 274 276 273 265 263 273 275 264 258 252 250 250 253 253 249 247 248 248 252 252 255 258 262 267 271 277 280 279 280 281 279 276 275 278 279 285 296 305 303 300 301 301 298 306 306 299 295 299 300 305 311
295 295 294 293 301 303 309 310 309 303 306 304 302 291 279 283 282 266 265 263 264 277 278 284 278 274 275 272 263 262 260 270 277 273 272 269 274 274 274 267 265 265 259 258 259 253 245 247 250 252 256 252 245 243 247 250 256 259 263 265 266 270 280 280 281 284 285 283 285 285 284 291 295 302 301 307 297 294 290 286 287 295 295 296 302
292 292 303 301 304 306 308 309 303 304 304 297 298 285 277 260 264 275 276 270 271 265 268 272 266 260 257 258 256 251 252 246 258 269 268 268 269 265 258 261 269 271 265 258 255 255 255 252 246 246 251 253 253 254 254 256 258 260 262 262 263 265 266 275 278 283 279 279 283 284 284 288 291 294 301 292 283 290 294 299 290 278 281 293 297
297 305 303 297 305 305 300 296 299 292 289 284 277 277 276 279 267 260 255 272 273 269 270 260 253 258 260 258 261 252 251 259 255 253 265 270 267 267 264 256 251 254 260 260 261 259 256 253 252 253 254 252 251 250 249 248 250 253 254 260 265 266 272 277 277 279 281 281 282 286 288 293 290 290 294 284 292 296 296 296 291 288 290 302 303
305 307 296 297 299 292 294 290 286 281 277 271 275 274 276 277 274 274 267 263 261 255 251 247 238 244 267 265 257 256 256 255 258 263 263 262 264 264 260 259 260 261 254 252 254 259 264 262 256 255 255 252 253 255 256 256 256 257 259 262 263 266 272 277 282 282 285 288 287 284 280 278 281 282 287 288 284 286 287 293 294 296 297 302 305
293 286 284 290 286 290 285 262 248 247 247 250 264 278 279 281 279 273 272 270 270 273 270 268 265 257 247 253 256 257 258 258 255 252 252 255 259 260 259 252 247 249 248 247 244 239 235 237 252 257 256 258 256 256 255 256 258 258 258 260 263 265 267 273 278 279 280 280 281 280 283 285 282 284 286 287 286 283 281 286 286 288 291 296 304
253 246 248 255 254 259 280 278 284 290 286 269 271 268 264 256 255 264 270 274 268 262 267 270 268 262 252 243 246 252 256 258 256 256 255 255 261 262 262 258 255 257 255 254 256 255 253 250 235 230 246 262 263 261 257 256 257 260 264 264 268 268 268 271 277 279 281 280 279 283 283 285 288 289 287 291 291 290 289 285 286 289 291 297 298
249 258 274 291 298 296 296 300 302 300 299 298 286 275 272 272 260 243 266 271 266 263 267 271 272 270 263 256 248 244 249 255 255 256 255 255 257 260 262 259 255 254 256 256 254 250 248 252 259 253 235 244 263 264 260 257 260 262 265 267 269 270 271 272 274 276 277 279 280 281 284 284 286 287 285 287 288 288 290 292 293 292 295 295 297
298 314 313 303 286 279 289 296 293 298 301 300 300 285 280 281 280 278 272 272 270 273 272 270 271 270 266 264 260 255 248 246 250 255 254 257 259 262 265 263 261 261 258 256 256 258 254 251 258 265 258 229 240 264 268 268 266 268 268 269 269 268 270 272 275 278 278 279 281 283 282 284 286 287 288 289 293 296 293 296 296 294 294 297 300
321 320 297 285 290 298 298 297 300 305 313 310 298 288 282 277 275 269 270 271 273 271 270 269 264 261 260 258 256 254 250 245 247 252 262 260 258 261 265 266 266 264 261 261 262 263 259 260 258 252 244 239 230 224 229 252 273 268 265 267 270 273 274 275 276 277 278 279 281 281 282 285 285 287 288 290 291 289 293 298 303 298 288 284 290
291 300 303 298 303 304 306 307 310 308 312 309 302 293 285 274 266 265 265 268 269 266 265 266 265 262 260 256 253 250 244 240 236 249 270 271 263 262 265 266 268 267 265 262 260 260 260 259 260 251 247 251 262 271 271 270 267 270 272 274 274 273 271 272 273 274 277 279 278 280 282 283 284 283 286 284 280 287 301 303 301 294 290 293 297
300 307 308 309 311 311 309 311 313 311 309 308 304 300 288 282 272 269 270 277 275 271 269 266 262 261 259 256 254 253 258 254 249 252 267 272 271 265 261 260 262 264 263 261 252 246 246 249 249 257 262 277 283 273 267 270 274 273 274 277 278 279 284 283 278 276 277 278 279 281 282 283 281 283 280 273 274 288 298 297 298 295 295 298 296
309 311 314 318 316 312 314 313 313 313 313 312 315 315 312 299 294 293 294 284 282 283 282 273 264 259 256 255 251 249 245 252 264 270 272 275 275 268 260 257 257 258 259 263 265 268 268 270 278 277 277 272 264 261 256 257 255 253 261 266 269 274 280 288 293 289 278 277 279 281 281 280 280 278 273 283 294 299 287 283 281 286 295 299 300
310 310 310 312 310 309 310 307 309 311 312 312 316 321 323 327 322 315 300 291 282 275 269 267 266 268 273 269 269 267 260 253 247 247 261 274 278 268 260 259 261 260 263 266 274 280 290 292 285 276 269 265 263 265 268 268 265 258 255 258 264 267 278 290 295 298 291 282 279 278 275 272 273 269 278 290 294 292 285 289 289 289 295 309 312
304 307 305 302 306 307 306 305 305 306 309 312 311 311 313 312 309 292 284 284 283 280 281 278 273 272 280 288 285 279 278 283 271 265 253 241 250 259 262 265 268 269 267 269 278 287 290 292 291 283 273 268 269 264 265 268 270 269 265 263 262 268 270 272 277 280 284 292 293 292 287 282 281 284 288 288 293 295 297 298 297 299 307 305 300
305 308 309 309 310 310 311 307 305 306 308 309 306 305 301 298 298 288 284 283 281 279 279 282 284 284 281 279 281 277 287 287 263 263 270 269 265 262 272 275 274 272 273 276 284 289 288 290 294 287 280 282 269 261 266 275 278 274 274 275 275 275 275 277 282 286 296 299 296 290 287 289 297 306 304 296 302 297 300 312 306 301 306 315 322
315 317 315 314 313 307 298 301 311 310 306 308 305 299 299 298 290 275 275 278 282 287 286 277 278 289 288 284 285 295 285 288 284 281 281 282 280 277 274 277 275 274 276 276 277 283 287 296 301 298 300 290 280 279 273 270 275 272 271 272 278 278 279 279 285 293 306 309 294 292 290 288 293 293 299 313 310 304 311 313 317 313 317 324 323
319 318 317 314 309 304 308 318 316 308 307 309 305 298 294 286 289 289 291 291 294 285 280 279 284 289 293 293 297 287 274 286 294 285 282 289 274 273 274 279 283 282 284 283 280 281 288 279 288 299 295 288 286 276 270 271 275 272 273 273 272 275 273 272 274 273 263 266 270 nan nan nan nan 295 303 316 319 311 311 313 313 312 321 318 316
322 320 319 317 315 315 316 315 309 311 306 304 299 297 293 289 295 300 300 299 293 281 278 279 281 285 288 290 299 297 293 282 279 283 285 273 268 272 272 276 278 284 282 278 287 294 289 282 267 271 278 283 279 274 268 269 276 277 278 nan nan nan nan nan nan nan nan nan nan nan nan nan 282 287 291 311 314 312 308 308 305 310 313 311 312
316 317 320 318 318 320 315 309 298 296 297 292 291 283 283 284 282 287 281 277 276 282 290 287 271 268 275 290 293 289 287 284 288 288 292 287 273 275 279 281 285 286 290 296 294 298 297 286 276 272 277 280 282 287 288 nan nan nan nan nan nan nan nan nan nan nan nan nan nan nan nan 284 287 287 289 290 302 303 306 304 306 308 311 311 311
314 313 313 313 312 312 306 306 301 292 282 280 282 286 282 278 280 280 281 279 285 291 294 298 305 315 309 308 302 301 291 291 289 295 286 279 276 275 283 278 276 278 281 288 294 293 293 290 285 285 287 286 nan nan nan nan nan nan nan nan nan nan nan nan nan nan nan nan nan nan 284 286 287 288 286 282 285 291 294 297 294 291 292 296 299
323 321 321 316 310 309 308 306 300 294 295 293 291 284 282 281 282 279 278 279 276 274 276 285 291 297 299 294 294 290 295 298 295 287 284 nan nan nan 283 280 279 281 282 283 284 282 285 294 292 292 nan nan nan nan nan nan nan nan nan nan nan nan nan nan nan nan nan nan 275 274 275 278 277 277 276 278 280 280 279 282 288 293 297 300 299
321 320 319 317 319 315 313 311 308 306 302 301 296 290 290 292 285 281 281 280 278 279 281 283 287 293 297 300 299 292 291 290 291 290 290 nan 289 284 282 283 nan 284 284 285 286 286 285 289 297 nan nan nan nan nan nan nan nan nan nan nan nan nan nan nan nan nan nan 275 276 275 274 274 nan nan nan nan nan nan nan nan 289 288 288 288 292
320 316 316 316 314 313 320 326 322 322 319 316 312 314 308 300 290 287 291 290 289 292 295 288 287 292 294 296 298 293 294 292 295 293 nan nan nan nan nan nan nan nan 288 291 289 288 287 285 nan nan nan nan nan nan nan nan nan nan nan nan nan nan nan nan nan nan nan nan nan nan nan nan nan nan nan nan nan nan nan nan nan nan nan nan nan
323 322 320 319 321 320 328 323 317 319 319 322 323 323 311 310 313 315 306 308 312 311 310 312 312 309 308 308 305 304 302 304 301 302 303 304 nan nan nan nan nan nan nan 294 294 292 290 nan nan nan nan nan nan nan nan nan nan nan nan nan nan nan nan nan nan nan nan nan nan nan nan nan nan nan nan nan nan nan nan nan nan nan nan nan nan
325 326 329 334 333 326 328 322 317 316 314 317 318 323 324 325 319 321 325 322 319 318 316 312 310 312 313 309 305 304 308 309 304 306 309 310 307 nan nan nan nan nan nan 292 nan nan nan nan nan nan nan nan nan nan nan nan nan nan nan nan nan nan nan nan nan nan nan nan nan nan nan nan nan nan nan nan nan nan nan nan nan nan nan nan nan
321 324 324 320 320 319 319 317 321 321 321 322 321 322 321 315 306 310 324 313 301 304 303 305 302 307 298 293 298 301 300 289 295 301 302 306 309 308 309 309 nan nan nan 299 296 296 299 nan nan nan nan nan nan nan nan nan nan nan nan nan nan nan nan nan nan nan nan nan nan nan nan nan nan nan nan nan nan nan nan nan nan nan nan nan nan
321 321 316 311 307 308 314 309 299 303 313 310 304 302 309 305 310 308 297 295 301 305 303 301 300 300 305 307 301 295 291 288 284 286 286 286 287 288 290 286 nan nan nan nan nan nan nan nan nan nan nan nan nan nan nan nan nan nan nan nan nan nan nan nan nan nan nan nan nan nan nan nan nan nan nan nan nan nan nan nan nan nan nan nan nan
320 314 311 312 308 311 303 306 306 309 295 287 281 275 278 284 286 290 287 289 292 296 299 299 297 299 297 291 289 287 287 287 287 284 284 nan nan nan nan nan nan nan nan nan nan nan nan nan nan 298 301 302 300 299 298 298 298 299 296 289 287 288 nan nan nan nan nan nan nan nan nan nan nan nan nan nan nan nan nan nan nan nan nan nan nan
313 314 312 308 308 310 305 300 298 290 293 296 290 284 274 273 275 288 295 288 nan nan nan nan nan 303 300 297 294 295 293 nan nan nan nan nan nan nan nan nan nan nan nan nan nan nan nan nan nan 291 292 296 297 296 295 292 294 293 287 287 289 282 284 nan nan nan nan nan nan nan nan nan nan nan nan nan nan nan nan nan nan nan nan nan nan
296 298 295 289 286 285 283 289 290 288 285 281 287 285 284 278 273 273 284 294 292 nan nan nan nan nan nan 302 nan nan nan nan nan nan nan nan nan nan nan nan nan nan nan nan nan nan nan nan nan 290 294 288 nan nan nan nan nan nan nan nan nan nan nan nan nan nan nan nan nan nan nan nan nan nan nan nan nan nan nan nan nan nan nan nan nan
299 299 297 295 291 293 296 292 292 290 289 291 289 289 290 291 291 286 290 293 298 299 nan nan nan nan nan nan nan nan nan nan nan nan nan nan nan nan nan nan nan nan nan nan nan nan nan nan 288 287 282 nan nan nan nan nan nan nan nan nan nan nan 284 nan nan nan nan nan nan nan nan nan nan nan nan nan nan nan nan nan nan nan nan nan nan
291 294 294 294 294 295 296 298 297 296 296 297 299 293 289 287 297 303 299 301 302 297 291 291 291 293 nan nan nan nan nan nan nan nan nan nan nan nan nan nan nan nan nan nan nan nan nan nan nan nan nan nan nan nan nan nan nan nan nan nan nan nan 282 286 nan nan nan nan nan nan nan nan nan nan nan nan nan nan nan nan nan nan nan nan nan
289 291 292 293 297 298 298 296 293 291 291 293 294 293 288 288 290 297 308 312 305 301 303 296 297 299 297 nan nan nan nan nan nan nan nan nan nan nan nan nan nan nan nan nan nan nan nan nan nan nan nan nan nan nan nan nan nan 279 nan nan nan nan 282 286 284 285 nan nan nan nan nan nan nan nan nan nan nan nan nan nan nan nan nan nan nan
291 290 289 294 298 299 299 297 293 289 285 286 291 289 285 290 300 305 305 301 303 305 304 301 300 300 nan nan nan nan nan nan nan nan nan nan nan nan nan nan nan nan nan nan nan nan nan nan nan nan nan nan 278 279 279 279 279 nan nan nan nan nan 281 nan nan nan nan nan nan nan nan nan nan nan nan nan nan 287 nan nan nan nan nan nan nan
294 296 296 294 296 297 300 300 294 287 282 284 287 286 285 286 297 304 303 301 306 307 305 302 300 nan nan nan nan nan nan nan nan nan nan nan nan nan nan nan nan 285 286 nan nan nan 293 288 283 281 280 280 280 280 281 280 279 nan nan nan nan nan nan nan nan nan 285 nan nan nan nan nan nan nan nan nan nan nan nan nan nan nan nan nan nan
280 281 283 284 291 300 305 308 303 299 297 295 291 286 284 291 299 300 301 303 306 306 304 305 302 301 304 303 nan nan nan nan nan nan nan nan nan nan nan nan nan 285 282 280 282 280 278 276 275 274 273 273 273 273 nan nan nan nan nan 279 279 278 nan nan nan nan 285 nan nan nan nan nan nan nan nan nan nan nan nan nan nan nan nan nan nan
283 283 283 285 289 296 305 307 299 303 299 292 291 290 293 295 296 298 295 295 297 298 299 297 295 292 291 293 307 302 nan nan 299 299 nan nan nan nan nan nan 283 282 282 279 277 278 279 279 279 279 277 276 275 276 276 276 279 282 283 284 284 285 nan nan 279 nan nan nan nan 291 292 291 291 289 nan nan nan nan nan nan nan nan nan nan nan
290 284 277 276 292 295 293 295 295 292 292 292 292 291 290 292 293 294 296 298 297 296 295 294 292 nan nan nan nan nan 299 296 293 288 289 291 287 284 284 284 284 283 279 278 281 280 nan nan nan 279 279 278 nan nan 278 277 278 279 279 280 279 279 280 284 282 nan nan nan nan 286 291 293 291 288 286 nan nan nan nan nan nan nan nan nan nan
281 283 284 278 284 287 293 294 293 291 292 291 290 289 290 290 291 293 294 294 294 294 294 293 nan nan nan nan nan nan nan 291 290 286 285 284 283 280 279 nan 278 nan nan nan nan nan nan nan nan nan nan nan nan nan nan nan nan nan nan 278 nan nan nan nan nan nan nan nan nan nan nan nan nan nan nan 281 nan nan nan nan nan nan nan nan nan
283 283 281 284 288 292 289 290 289 287 288 288 288 289 289 290 289 289 290 289 290 290 291 nan nan nan nan nan nan nan 289 nan nan nan nan nan nan nan nan nan nan nan nan nan nan nan nan nan nan nan nan nan nan nan nan nan nan nan nan nan nan nan nan nan nan nan nan nan nan nan nan nan nan nan nan nan nan nan nan nan nan nan nan nan nan
278 278 279 283 283 285 287 287 287 287 288 288 288 287 288 288 288 288 288 nan nan nan nan nan nan nan nan nan nan nan nan nan nan nan nan nan nan nan nan nan nan nan nan nan nan nan nan nan nan nan nan nan nan nan nan nan nan nan nan nan nan nan nan nan nan nan nan nan nan nan nan nan nan nan nan nan nan nan nan nan nan nan nan nan nan
277 276 278 282 285 288 289 289 290 289 289 288 nan nan nan nan nan nan nan nan nan nan nan nan nan nan nan nan nan nan nan nan nan nan nan nan nan nan nan nan nan nan nan nan nan nan nan nan nan nan nan nan nan nan nan nan nan nan nan nan nan nan nan nan nan nan nan nan nan nan nan nan nan nan nan nan nan nan nan nan nan nan nan nan nan
279 280 281 283 286 288 288 nan nan nan nan nan nan nan nan nan nan nan nan nan nan nan nan nan nan nan nan nan nan nan nan nan nan nan nan nan nan nan nan nan nan nan nan nan nan nan nan nan nan nan nan nan nan nan nan nan nan nan nan nan nan nan nan nan nan nan nan nan nan nan nan nan nan nan nan nan nan nan nan nan nan nan nan nan nan
nan nan nan nan nan nan nan 287 nan nan nan nan nan nan nan nan nan nan nan nan nan nan nan nan nan nan nan nan nan nan nan nan nan nan nan nan nan nan nan nan nan nan nan nan nan nan nan nan nan nan nan nan nan nan nan nan nan nan nan nan nan nan nan nan nan nan nan nan nan nan nan nan nan nan nan nan nan nan nan nan nan nan nan nan nan
nan nan nan nan nan nan nan nan nan nan nan nan nan nan nan nan nan nan nan nan nan nan nan nan nan nan nan nan nan nan nan nan nan nan nan nan nan nan nan nan nan nan nan nan nan nan nan nan nan nan nan nan nan nan nan nan nan nan nan nan nan nan nan nan nan nan nan nan nan nan nan nan nan nan nan nan nan nan nan nan nan nan nan nan nan
nan nan nan nan nan nan nan nan nan nan nan nan nan nan nan nan nan nan nan nan nan nan nan nan nan nan nan nan nan nan nan nan nan nan nan nan nan nan nan nan nan nan nan nan nan nan nan nan nan nan nan nan nan nan nan nan nan nan nan nan nan nan nan nan nan nan nan nan nan nan nan nan nan nan nan nan nan nan nan nan nan 275 276 nan nan
nan nan nan nan nan nan nan nan nan nan nan nan nan nan nan nan nan nan nan nan nan nan nan nan nan nan nan nan nan nan nan nan nan nan nan nan nan nan nan nan nan nan nan nan nan nan nan nan nan nan nan nan nan nan nan nan nan nan nan nan nan nan nan nan nan nan nan nan nan nan nan nan nan nan nan nan nan nan nan nan nan nan 274 273 272
nan nan nan nan nan nan nan nan nan nan nan nan nan nan nan nan nan nan nan nan nan nan nan nan nan nan nan nan nan nan nan nan nan nan nan nan nan nan nan nan nan nan nan nan nan nan nan nan nan nan nan nan nan nan nan nan nan nan nan nan nan nan nan nan nan nan nan nan nan nan nan nan nan nan nan nan nan nan nan nan nan nan nan nan nan
nan nan nan nan nan nan nan nan nan nan nan nan nan nan nan nan nan nan nan nan nan nan nan nan nan nan nan nan nan nan nan nan nan nan nan nan nan nan nan nan nan nan nan nan nan nan nan nan nan nan nan nan nan nan nan nan nan nan nan nan nan nan nan nan nan nan nan nan nan nan nan nan nan nan nan nan nan nan nan nan nan nan nan nan nan
nan nan nan nan nan nan nan nan nan nan nan nan nan nan nan nan nan nan nan nan nan nan nan nan nan nan nan nan nan nan nan nan nan nan nan nan nan nan nan nan nan nan nan nan nan nan nan nan nan nan nan nan nan nan nan nan nan nan nan nan nan nan nan nan nan nan nan nan nan nan nan nan nan nan nan nan nan nan nan nan nan nan nan nan nan